GW0143 Weather Reports


Display with metric or nautical units.
time (UTC)temp
F
wind
direction
speed
MPH
gust
MPH
rain 1hr
in
rain 24hr
in
rain mn
in
humidity
%
barometer
mb
20260904105518 59 189 8.0 11.0 0.00 0.00 0.00 52 1025.0
20260904104518 59 190 7.0 12.0 0.00 0.00 0.00 52 1024.9
20260904103517 58 178 5.0 8.0 0.00 0.00 0.00 53 1024.9
20260904102517 58 152 6.0 8.0 0.00 0.00 0.00 52 1024.7
20260904101518 59 157 5.0 8.0 0.00 0.00 0.00 52 1024.6
20260904100518 60 203 6.0 9.0 0.00 0.00 0.00 46 1024.5
20260904095518 60 199 6.0 9.0 0.00 0.00 0.00 49 1024.4
20260904094518 59 188 7.0 10.0 0.00 0.00 0.00 50 1024.3
20260904093558 60 197 6.0 9.0 0.00 0.00 0.00 48 1024.2
20260904092517 60 180 8.0 11.0 0.00 0.00 0.00 47 1024.2
20260904091519 61 174 5.0 8.0 0.00 0.00 0.00 48 1024.2
20260904090519 62 164 6.0 9.0 0.00 0.00 0.00 44 1024.1
20260904085519 62 349 3.0 7.0 0.00 0.00 0.00 44 1024.3
20260904084519 62 209 6.0 8.0 0.00 0.00 0.00 42 1024.2
20260904083519 62 192 8.0 10.0 0.00 0.00 0.00 42 1024.3
20260904082519 63 203 5.0 8.0 0.00 0.00 0.00 41 1024.4
20260904081519 63 220 8.0 10.0 0.00 0.00 0.00 40 1024.3
20260904080518 63 216 8.0 11.0 0.00 0.00 0.00 41 1024.4
20260904075516 64 224 7.0 10.0 0.00 0.00 0.00 40 1024.6
20260904074516 63 215 6.0 9.0 0.00 0.00 0.00 40 1024.8
20260904073520 63 223 6.0 9.0 0.00 0.00 0.00 39 1024.8
20260904072601 63 216 5.0 8.0 0.00 0.00 0.00 40 1024.8
20260904071521 62 208 6.0 9.0 0.00 0.00 0.00 41 1024.8
20260904070517 60 195 5.0 8.0 0.00 0.00 0.00 44 1024.8
20260904065517 61 160 4.0 7.0 0.00 0.00 0.00 42 1024.8
20260904064517 60 159 4.0 8.0 0.00 0.00 0.00 44 1024.8
20260904063517 60 170 5.0 7.0 0.00 0.00 0.00 45 1024.8
20260904062522 0 155 5.0 5.0 0.00 0.00 0.00
20260904061558 61 167 7.0 10.0 0.00 0.00 0.00 42 1024.7
20260904060518 62 152 8.0 10.0 0.00 0.00 0.00 41 1024.7
20260904055538 62 151 7.0 9.0 0.00 0.00 0.00 40 1024.7
20260904054538 63 152 7.0 11.0 0.00 0.00 0.00 38 1024.8
20260904053518 63 174 10.0 14.0 0.00 0.00 0.00 38 1024.8
20260904052516 62 157 7.0 10.0 0.00 0.00 0.00 38 1025.0
20260904051519 60 164 8.0 10.0 0.00 0.00 0.00 42 1025.0
20260904050519 61 162 3.0 7.0 0.00 0.00 0.00 41 1025.2
20260904045620 60 141 5.0 10.0 0.00 0.00 0.00 41 1025.1
20260904044524 61 110 3.0 5.0 0.00 0.00 0.00 42 1025.1
20260904043519 62 111 3.0 6.0 0.00 0.00 0.00 39 1025.1
20260904042539 62 26 3.0 5.0 0.00 0.00 0.00 38 1025.2
20260904041519 63 178 4.0 10.0 0.00 0.00 0.00 37 1025.1
20260904040520 63 218 5.0 7.0 0.00 0.00 0.00 38 1025.0
20260904035540 64 195 6.0 10.0 0.00 0.00 0.00 35 1025.0
20260904034517 64 198 8.0 12.0 0.00 0.00 0.00 40 1025.0
20260904033520 64 198 8.0 10.0 0.00 0.00 0.00 39 1024.9
20260904032517 64 185 8.0 14.0 0.00 0.00 0.00 39 1024.8
20260904031521 65 161 6.0 9.0 0.00 0.00 0.00 38 1024.8
20260904030521 64 171 7.0 8.0 0.00 0.00 0.00 37 1024.8
20260904025521 64 152 7.0 9.0 0.00 0.00 0.00 39 1024.8
20260904024521 65 151 6.0 10.0 0.00 0.00 0.00 36 1024.7
20260904023521 64 161 6.0 9.0 0.00 0.00 0.00 36 1024.7
20260904022522 63 155 6.0 8.0 0.00 0.00 0.00 38 1024.6
20260904021522 64 152 6.0 9.0 0.00 0.00 0.00 36 1024.4
20260904020516 66 167 6.0 8.0 0.00 0.00 0.00 34 1024.3
20260904015517 67 220 6.0 8.0 0.00 0.00 0.00 31 1024.2
20260904014517 68 211 6.0 10.0 0.00 0.00 0.00 31 1024.1
20260904013523 69 221 5.0 8.0 0.00 0.00 0.00 29 1024.1
20260904012517 70 219 6.0 10.0 0.00 0.00 0.00 28 1024.0
20260904011518 72 216 6.0 8.0 0.00 0.00 0.00 28 1024.0
20260904010518 74 222 6.0 9.0 0.00 0.00 0.00 26 1024.0
20260904005517 75 229 8.0 20.0 0.00 0.00 0.00 25 1023.9
20260904004518 75 238 7.0 11.0 0.00 0.00 0.00 24 1023.9
20260904003518 76 248 8.0 13.0 0.00 0.00 0.00 23 1023.9
20260904002518 76 243 8.0 13.0 0.00 0.00 0.00 23 1023.9
20260904001539 76 232 7.0 11.0 0.00 0.00 0.00 24 1023.9
20260904000519 75 221 6.0 11.0 0.00 0.00 0.00 25 1023.9
20260903235536 77 242 7.0 10.0 0.00 0.00 0.00 24 1023.9
20260903234539 78 259 10.0 15.0 0.00 0.00 0.00 23 1023.9
20260903233539 78 249 10.0 18.0 0.00 0.00 0.00 23 1023.8
20260903232536 78 237 7.0 14.0 0.00 0.00 0.00 22 1023.8
20260903231516 78 247 8.0 14.0 0.00 0.00 0.00 22 1023.9
20260903230517 78 260 8.0 19.0 0.00 0.00 0.00 22 1023.9
20260903225520 78 308 8.0 12.0 0.00 0.00 0.00 22 1024.0
20260903224518 78 272 6.0 15.0 0.00 0.00 0.00 22 1024.0
20260903223558 78 264 8.0 16.0 0.00 0.00 0.00 22 1024.1
20260903222518 78 279 7.0 12.0 0.00 0.00 0.00 22 1024.1
20260903221520 78 260 3.0 8.0 0.00 0.00 0.00 22 1024.3
20260903220539 78 222 10.0 18.0 0.00 0.00 0.00 22 1024.4
20260903215518 78 229 11.0 18.0 0.00 0.00 0.00 22 1024.4
20260903214521 77 251 4.0 7.0 0.00 0.00 0.00 23 1024.5
20260903213519 77 255 8.0 16.0 0.00 0.00 0.00 22 1024.5
20260903212522 77 351 4.0 9.0 0.00 0.00 0.00 20 1024.7
20260903211539 77 291 6.0 9.0 0.00 0.00 0.00 20 1024.8
20260903210516 77 289 8.0 17.0 0.00 0.00 0.00 20 1024.8
20260903205519 76 260 5.0 16.0 0.00 0.00 0.00 22 1025.0
20260903204519 76 276 8.0 15.0 0.00 0.00 0.00 22 1025.1
20260903203516 76 321 6.0 10.0 0.00 0.00 0.00 22 1025.2
20260903202517 76 283 5.0 11.0 0.00 0.00 0.00 21 1025.2
20260903201537 76 224 8.0 16.0 0.00 0.00 0.00 23 1025.3
20260903200517 76 289 6.0 12.0 0.00 0.00 0.00 21 1025.3
20260903195517 76 267 4.0 8.0 0.00 0.00 0.00 20 1025.5
20260903194517 75 271 5.0 12.0 0.00 0.00 0.00 21 1025.5
20260903193518 75 275 7.0 12.0 0.00 0.00 0.00 22 1025.6
20260903192518 76 284 11.0 16.0 0.00 0.00 0.00 21 1025.6
20260903191539 76 264 13.0 20.0 0.00 0.00 0.00 20 1025.6
20260903190518 75 236 6.0 13.0 0.00 0.00 0.00 21 1025.7
20260903185518 75 272 9.0 19.0 0.00 0.00 0.00 22 1025.7
20260903184519 75 241 7.0 13.0 0.00 0.00 0.00 24 1025.8
20260903183516 74 314 5.0 10.0 0.00 0.00 0.00 23 1025.8
20260903182519 75 255 8.0 16.0 0.00 0.00 0.00 22 1025.9
20260903181519 74 162 4.0 9.0 0.00 0.00 0.00 26 1026.0
20260903180520 74 236 6.0 12.0 0.00 0.00 0.00 26 1026.0
20260903175516 73 257 6.0 11.0 0.00 0.00 0.00 26 1026.2
20260903174520 73 249 4.0 10.0 0.00 0.00 0.00 25 1026.2
20260903173520 73 235 5.0 12.0 0.00 0.00 0.00 27 1026.2
20260903172520 73 254 6.0 9.0 0.00 0.00 0.00 28 1026.3
20260903171520 72 223 5.0 9.0 0.00 0.00 0.00 27 1026.3
20260903170521 71 202 5.0 9.0 0.00 0.00 0.00 27 1026.3
20260903165517 71 203 5.0 9.0 0.00 0.00 0.00 27 1026.3
20260903164521 71 223 5.0 9.0 0.00 0.00 0.00 29 1026.3
20260903163521 70 255 5.0 8.0 0.00 0.00 0.00 29 1026.3
20260903162521 70 315 5.0 8.0 0.00 0.00 0.00 32 1026.1
20260903161518 70 320 6.0 11.0 0.00 0.00 0.00 33 1026.0
20260903160518 69 286 6.0 11.0 0.00 0.00 0.00 34 1026.2
20260903155518 69 288 7.0 13.0 0.00 0.00 0.00 35 1026.3
20260903154519 68 272 7.0 11.0 0.00 0.00 0.00 35 1026.5
20260903153516 68 282 9.0 14.0 0.00 0.00 0.00 35 1026.5
20260903152519 68 287 6.0 11.0 0.00 0.00 0.00 35 1026.5
20260903151522 68 279 5.0 10.0 0.00 0.00 0.00 36 1026.6
20260903150543 68 227 4.0 7.0 0.00 0.00 0.00 35 1026.7
20260903145517 67 231 6.0 10.0 0.00 0.00 0.00 37 1026.8
20260903144517 66 209 8.0 11.0 0.00 0.00 0.00 41 1026.8
20260903143517 66 186 10.0 13.0 0.00 0.00 0.00 41 1026.8
20260903142517 65 193 10.0 15.0 0.00 0.00 0.00 43 1026.7
20260903141517 64 188 11.0 16.0 0.00 0.00 0.00 45 1026.8
20260903132519 59 190 8.0 11.0 0.00 0.00 0.00 51 1026.3
20260903131518 58 187 7.0 10.0 0.00 0.00 0.00 54 1026.1
20260903130519 57 204 6.0 9.0 0.00 0.00 0.00 54 1026.0
20260903125519 56 185 5.0 8.0 0.00 0.00 0.00 54 1026.1
20260903124519 57 185 6.0 8.0 0.00 0.00 0.00 56 1025.9
20260903123540 58 210 6.0 9.0 0.00 0.00 0.00 50 1025.8
20260903122520 58 180 5.0 7.0 0.00 0.00 0.00 52 1025.8
20260903121520 59 226 6.0 9.0 0.00 0.00 0.00 47 1025.7
20260903120520 56 181 5.0 8.0 0.00 0.00 0.00 57 1025.6
20260903115520 57 197 6.0 9.0 0.00 0.00 0.00 55 1025.6
20260903114520 57 257 3.0 7.0 0.00 0.00 0.00 53 1025.4
20260903113530 58 209 3.0 5.0 0.00 0.00 0.00 52 1025.6
20260903112541 58 181 5.0 9.0 0.00 0.00 0.00 51 1025.4
20260903111541 57 174 6.0 7.0 0.00 0.00 0.00 52 1025.4
20260903110521 58 116 3.0 6.0 0.00 0.00 0.00 50 1025.3